Year,Month,Day,Hour,Minute,Value (Times are PST for temperature in C)
2015,06,17,00,00,13.60
2015,06,17,00,01,13.60
2015,06,17,00,02,13.60
2015,06,17,00,03,13.60
2015,06,17,00,04,13.60
2015,06,17,00,05,13.60
2015,06,17,00,06,13.60
2015,06,17,00,07,13.60
2015,06,17,00,08,13.60
2015,06,17,00,09,13.60
2015,06,17,00,10,13.60
2015,06,17,00,11,13.60
2015,06,17,00,12,13.50
2015,06,17,00,13,13.50
2015,06,17,00,14,13.50
2015,06,17,00,15,13.40
2015,06,17,00,16,13.40
2015,06,17,00,17,13.40
2015,06,17,00,18,13.40
2015,06,17,00,19,13.40
2015,06,17,00,20,13.40
2015,06,17,00,21,13.40
2015,06,17,00,22,13.40
2015,06,17,00,23,13.40
2015,06,17,00,24,13.40
2015,06,17,00,25,13.40
2015,06,17,00,26,13.40
2015,06,17,00,27,13.40
2015,06,17,00,29,13.40
2015,06,17,00,30,13.40
2015,06,17,00,31,13.40
2015,06,17,00,32,13.40
2015,06,17,00,33,13.40
2015,06,17,00,34,13.30
2015,06,17,00,35,13.30
2015,06,17,00,36,13.30
2015,06,17,00,37,13.30
2015,06,17,00,38,13.30
2015,06,17,00,39,13.30
2015,06,17,00,40,13.30
2015,06,17,00,41,13.30
2015,06,17,00,42,13.30
2015,06,17,00,44,13.30
2015,06,17,00,45,13.20
2015,06,17,00,46,13.20
2015,06,17,00,47,13.20
2015,06,17,00,48,13.20
2015,06,17,00,49,13.20
2015,06,17,00,50,13.20
2015,06,17,00,51,13.20
2015,06,17,00,52,13.20
2015,06,17,00,53,13.20
2015,06,17,00,54,13.10
2015,06,17,00,55,13.10
2015,06,17,00,56,13.10
2015,06,17,00,57,13.10
2015,06,17,00,58,13.10
2015,06,17,00,59,13.10
2015,06,17,01,01,13.10
2015,06,17,01,02,13.00
2015,06,17,01,03,13.00
2015,06,17,01,04,13.00
2015,06,17,01,05,13.00
2015,06,17,01,06,12.90
2015,06,17,01,07,12.90
2015,06,17,01,08,12.90
2015,06,17,01,09,12.90
2015,06,17,01,10,12.90
2015,06,17,01,11,12.90
2015,06,17,01,12,12.90
2015,06,17,01,13,12.80
2015,06,17,01,14,12.80
2015,06,17,01,15,12.80
2015,06,17,01,16,12.80
2015,06,17,01,17,12.80
2015,06,17,01,18,12.80
2015,06,17,01,19,12.80
2015,06,17,01,20,12.80
2015,06,17,01,21,12.80
2015,06,17,01,22,12.70
2015,06,17,01,23,12.70
2015,06,17,01,24,12.70
2015,06,17,01,25,12.70
2015,06,17,01,26,12.70
2015,06,17,01,27,12.70
2015,06,17,01,28,12.70
2015,06,17,01,29,12.70
2015,06,17,01,30,12.60
2015,06,17,01,31,12.60
2015,06,17,01,32,12.60
2015,06,17,01,33,12.60
2015,06,17,01,34,12.60
2015,06,17,01,35,12.60
2015,06,17,01,36,12.60
2015,06,17,01,37,12.60
2015,06,17,01,38,12.60
2015,06,17,01,39,12.50
2015,06,17,01,40,12.50
2015,06,17,01,41,12.50
2015,06,17,01,42,12.50
2015,06,17,01,43,12.50
2015,06,17,01,44,12.40
2015,06,17,01,45,12.40
2015,06,17,01,46,12.40
2015,06,17,01,47,12.40
2015,06,17,01,48,12.40
2015,06,17,01,49,12.40
2015,06,17,01,50,12.40
2015,06,17,01,51,12.40
2015,06,17,01,52,12.30
2015,06,17,01,55,12.30
2015,06,17,01,57,12.30
2015,06,17,01,58,12.30
2015,06,17,02,00,12.30
2015,06,17,02,01,12.20
2015,06,17,02,02,12.20
2015,06,17,02,03,12.20
2015,06,17,02,04,12.20
2015,06,17,02,05,12.20
2015,06,17,02,06,12.20
2015,06,17,02,07,12.20
2015,06,17,02,08,12.20
2015,06,17,02,09,12.20
2015,06,17,02,10,12.20
2015,06,17,02,11,12.20
2015,06,17,02,12,12.20
2015,06,17,02,13,12.20
2015,06,17,02,14,12.20
2015,06,17,02,15,12.10
2015,06,17,02,16,12.10
2015,06,17,02,17,12.10
2015,06,17,02,18,12.10
2015,06,17,02,19,12.10
2015,06,17,02,20,12.10
2015,06,17,02,21,12.10
2015,06,17,02,22,12.10
2015,06,17,02,23,12.10
2015,06,17,02,24,12.10
2015,06,17,02,25,12.10
2015,06,17,02,26,12.10
2015,06,17,02,27,12.10
2015,06,17,02,28,12.10
2015,06,17,02,29,12.10
2015,06,17,02,30,12.10
2015,06,17,02,31,12.10
2015,06,17,02,32,12.00
2015,06,17,02,33,12.10
2015,06,17,02,34,12.00
2015,06,17,02,35,12.00
2015,06,17,02,36,12.00
2015,06,17,02,37,12.00
2015,06,17,02,38,12.00
2015,06,17,02,39,11.90
2015,06,17,02,40,11.90
2015,06,17,02,41,11.90
2015,06,17,02,42,11.90
2015,06,17,02,43,11.90
2015,06,17,02,44,11.90
2015,06,17,02,45,11.90
2015,06,17,02,46,11.90
2015,06,17,02,47,11.90
2015,06,17,02,48,11.90
2015,06,17,02,49,11.90
2015,06,17,02,50,11.90
2015,06,17,02,51,11.90
2015,06,17,02,52,11.90
2015,06,17,02,53,11.80
2015,06,17,02,54,11.80
2015,06,17,02,55,11.80
2015,06,17,02,56,11.80
2015,06,17,02,57,11.80
2015,06,17,02,58,11.80
2015,06,17,02,59,11.80
2015,06,17,03,00,11.80
2015,06,17,03,01,11.80
2015,06,17,03,02,11.80
2015,06,17,03,03,11.80
2015,06,17,03,04,11.80
2015,06,17,03,05,11.80
2015,06,17,03,06,11.80
2015,06,17,03,07,11.80
2015,06,17,03,08,11.80
2015,06,17,03,09,11.80
2015,06,17,03,10,11.80
2015,06,17,03,11,11.70
2015,06,17,03,12,11.70
2015,06,17,03,13,11.70
2015,06,17,03,14,11.70
2015,06,17,03,16,11.70
2015,06,17,03,17,11.70
2015,06,17,03,18,11.70
2015,06,17,03,19,11.70
2015,06,17,03,20,11.70
2015,06,17,03,21,11.70
2015,06,17,03,22,11.70
2015,06,17,03,23,11.70
2015,06,17,03,24,11.70
2015,06,17,03,25,11.70
2015,06,17,03,26,11.70
2015,06,17,03,27,11.60
2015,06,17,03,28,11.70
2015,06,17,03,29,11.70
2015,06,17,03,30,11.60
2015,06,17,03,31,11.60
2015,06,17,03,32,11.60
2015,06,17,03,33,11.60
2015,06,17,03,34,11.60
2015,06,17,03,35,11.60
2015,06,17,03,36,11.60
2015,06,17,03,37,11.60
2015,06,17,03,38,11.60
2015,06,17,03,39,11.60
2015,06,17,03,40,11.60
2015,06,17,03,41,11.60
2015,06,17,03,42,11.60
2015,06,17,03,43,11.60
2015,06,17,03,44,11.60
2015,06,17,03,45,11.60
2015,06,17,03,46,11.60
2015,06,17,03,47,11.60
2015,06,17,03,48,11.60
2015,06,17,03,49,11.60
2015,06,17,03,51,11.60
2015,06,17,03,52,11.60
2015,06,17,03,53,11.60
2015,06,17,03,54,11.60
2015,06,17,03,55,11.70
2015,06,17,03,56,11.70
2015,06,17,03,57,11.70
2015,06,17,03,58,11.70
2015,06,17,03,59,11.70
2015,06,17,04,00,11.70
2015,06,17,04,02,11.70
2015,06,17,04,03,11.70
2015,06,17,04,04,11.70
2015,06,17,04,06,11.70
2015,06,17,04,07,11.70
2015,06,17,04,09,11.70
2015,06,17,04,10,11.70
2015,06,17,04,11,11.70
2015,06,17,04,12,11.70
2015,06,17,04,13,11.70
2015,06,17,04,14,11.80
2015,06,17,04,15,11.70
2015,06,17,04,16,11.80
2015,06,17,04,17,11.80
2015,06,17,04,18,11.80
2015,06,17,04,19,11.80
2015,06,17,04,20,11.80
2015,06,17,04,21,11.80
2015,06,17,04,22,11.80
2015,06,17,04,23,11.80
2015,06,17,04,24,11.80
2015,06,17,04,25,11.80
2015,06,17,04,26,11.80
2015,06,17,04,27,11.80
2015,06,17,04,28,11.80
2015,06,17,04,29,11.80
2015,06,17,04,30,11.80
2015,06,17,04,31,11.80
2015,06,17,04,32,11.80
2015,06,17,04,33,11.80
2015,06,17,04,34,11.80
2015,06,17,04,35,11.80
2015,06,17,04,36,11.80
2015,06,17,04,37,11.80
2015,06,17,04,38,11.90
2015,06,17,04,39,11.80
2015,06,17,04,40,11.90
2015,06,17,04,42,11.90
2015,06,17,04,43,11.90
2015,06,17,04,44,11.90
2015,06,17,04,45,11.90
2015,06,17,04,46,11.90
2015,06,17,04,47,11.90
2015,06,17,04,48,11.90
2015,06,17,04,49,11.90
2015,06,17,04,50,11.90
2015,06,17,04,51,11.90
2015,06,17,04,54,11.90
2015,06,17,04,55,11.90
2015,06,17,04,56,11.90
2015,06,17,04,57,11.90
2015,06,17,04,58,11.90
2015,06,17,04,59,11.90
2015,06,17,05,00,11.90
2015,06,17,05,01,11.90
2015,06,17,05,02,11.90
2015,06,17,05,03,11.90
2015,06,17,05,04,11.90
2015,06,17,05,05,11.90
2015,06,17,05,06,11.90
2015,06,17,05,07,11.90
2015,06,17,05,08,11.90
2015,06,17,05,09,11.90
2015,06,17,05,10,11.90
2015,06,17,05,11,11.90
2015,06,17,05,12,11.90
2015,06,17,05,13,11.90
2015,06,17,05,14,11.90
2015,06,17,05,15,11.90
2015,06,17,05,16,11.90
2015,06,17,05,17,11.90
2015,06,17,05,18,11.90
2015,06,17,05,19,11.90
2015,06,17,05,20,11.90
2015,06,17,05,21,11.90
2015,06,17,05,22,11.90
2015,06,17,05,23,11.90
2015,06,17,05,24,11.90
2015,06,17,05,25,11.90
2015,06,17,05,26,11.90
2015,06,17,05,27,11.90
2015,06,17,05,28,11.90
2015,06,17,05,29,11.90
2015,06,17,05,30,11.90
2015,06,17,05,31,11.90
2015,06,17,05,32,11.90
2015,06,17,05,33,11.90
2015,06,17,05,34,11.90
2015,06,17,05,35,11.90
2015,06,17,05,36,11.90
2015,06,17,05,37,11.90
2015,06,17,05,38,11.90
2015,06,17,05,39,11.90
2015,06,17,05,40,11.90
2015,06,17,05,41,11.90
2015,06,17,05,42,11.90
2015,06,17,05,43,11.90
2015,06,17,05,44,11.90
2015,06,17,05,45,11.90
2015,06,17,05,46,11.90
2015,06,17,05,47,11.90
2015,06,17,05,48,11.90
2015,06,17,05,49,11.90
2015,06,17,05,51,11.90
2015,06,17,05,52,11.90
2015,06,17,05,53,11.90
2015,06,17,05,54,11.90
2015,06,17,05,55,11.90
2015,06,17,05,58,12.00
2015,06,17,06,00,12.00
2015,06,17,06,01,12.00
2015,06,17,06,02,12.00
2015,06,17,06,04,12.00
2015,06,17,06,05,12.10
2015,06,17,06,06,12.10
2015,06,17,06,07,12.10
2015,06,17,06,08,12.10
2015,06,17,06,09,12.10
2015,06,17,06,10,12.10
2015,06,17,06,11,12.10
2015,06,17,06,12,12.10
2015,06,17,06,13,12.10
2015,06,17,06,14,12.10
2015,06,17,06,15,12.10
2015,06,17,06,16,12.10
2015,06,17,06,17,12.10
2015,06,17,06,18,12.10
2015,06,17,06,19,12.10
2015,06,17,06,20,12.10
2015,06,17,06,21,12.20
2015,06,17,06,23,12.20
2015,06,17,06,24,12.20
2015,06,17,06,25,12.20
2015,06,17,06,26,12.20
2015,06,17,06,27,12.20
2015,06,17,06,28,12.20
2015,06,17,06,29,12.20
2015,06,17,06,30,12.20
2015,06,17,06,31,12.20
2015,06,17,06,32,12.20
2015,06,17,06,33,12.30
2015,06,17,06,34,12.30
2015,06,17,06,35,12.30
2015,06,17,06,38,12.30
2015,06,17,06,39,12.30
2015,06,17,06,40,12.30
2015,06,17,06,41,12.30
2015,06,17,06,42,12.30
2015,06,17,06,43,12.30
2015,06,17,06,45,12.30
2015,06,17,06,46,12.30
2015,06,17,06,47,12.30
2015,06,17,06,48,12.30
2015,06,17,06,49,12.40
2015,06,17,06,50,12.40
2015,06,17,06,51,12.40
2015,06,17,06,52,12.40
2015,06,17,06,53,12.40
2015,06,17,06,54,12.40
2015,06,17,06,55,12.40
2015,06,17,06,56,12.40
2015,06,17,06,57,12.50
2015,06,17,06,58,12.50
2015,06,17,06,59,12.50
2015,06,17,07,00,12.50
2015,06,17,07,01,12.60
2015,06,17,07,02,12.60
2015,06,17,07,03,12.60
2015,06,17,07,04,12.60
2015,06,17,07,05,12.60
2015,06,17,07,06,12.60
2015,06,17,07,08,12.70
2015,06,17,07,09,12.70
2015,06,17,07,10,12.70
2015,06,17,07,11,12.70
2015,06,17,07,12,12.70
2015,06,17,07,13,12.70
2015,06,17,07,14,12.70
2015,06,17,07,15,12.70
2015,06,17,07,16,12.70
2015,06,17,07,17,12.80
2015,06,17,07,18,12.80
2015,06,17,07,19,12.80
2015,06,17,07,20,12.80
2015,06,17,07,21,12.80
2015,06,17,07,22,12.80
2015,06,17,07,23,12.80
2015,06,17,07,24,12.80
2015,06,17,07,25,12.80
2015,06,17,07,26,12.90
2015,06,17,07,27,12.90
2015,06,17,07,29,12.90
2015,06,17,07,30,12.90
2015,06,17,07,31,12.90
2015,06,17,07,32,13.00
2015,06,17,07,33,13.00
2015,06,17,07,34,13.00
2015,06,17,07,35,13.10
2015,06,17,07,36,13.10
2015,06,17,07,37,13.10
2015,06,17,07,38,13.10
2015,06,17,07,39,13.10
2015,06,17,07,40,13.20
2015,06,17,07,41,13.20
2015,06,17,07,42,13.20
2015,06,17,07,43,13.20
2015,06,17,07,44,13.20
2015,06,17,07,45,13.20
2015,06,17,07,46,13.30
2015,06,17,07,47,13.30
2015,06,17,07,48,13.30
2015,06,17,07,49,13.30
2015,06,17,07,50,13.30
2015,06,17,07,51,13.30
2015,06,17,07,52,13.40
2015,06,17,07,53,13.40
2015,06,17,07,54,13.40
2015,06,17,07,55,13.40
2015,06,17,07,56,13.40
2015,06,17,07,57,13.40
2015,06,17,07,59,13.50
2015,06,17,08,00,13.50
2015,06,17,08,02,13.60
2015,06,17,08,03,13.60
2015,06,17,08,04,13.60
2015,06,17,08,05,13.60
2015,06,17,08,06,13.60
2015,06,17,08,07,13.60
2015,06,17,08,08,13.60
2015,06,17,08,09,13.60
2015,06,17,08,10,13.70
2015,06,17,08,11,13.70
2015,06,17,08,12,13.70
2015,06,17,08,13,13.70
2015,06,17,08,14,13.70
2015,06,17,08,15,13.70
2015,06,17,08,16,13.70
2015,06,17,08,17,13.80
2015,06,17,08,18,13.80
2015,06,17,08,19,13.80
2015,06,17,08,20,13.80
2015,06,17,08,21,13.80
2015,06,17,08,22,13.80
2015,06,17,08,23,13.90
2015,06,17,08,24,13.90
2015,06,17,08,25,13.90
2015,06,17,08,26,13.80
2015,06,17,08,27,13.90
2015,06,17,08,28,13.90
2015,06,17,08,29,13.90
2015,06,17,08,30,13.90
2015,06,17,08,31,14.00
2015,06,17,08,32,14.10
2015,06,17,08,33,14.10
2015,06,17,08,34,14.20
2015,06,17,08,35,14.30
2015,06,17,08,36,14.30
2015,06,17,08,37,14.40
2015,06,17,08,38,14.50
2015,06,17,08,39,14.60
2015,06,17,08,40,14.70
2015,06,17,08,41,14.80
2015,06,17,08,42,14.90
2015,06,17,08,43,14.90
2015,06,17,08,44,15.00
2015,06,17,08,45,15.10
2015,06,17,08,46,15.10
2015,06,17,08,47,15.10
2015,06,17,08,48,15.20
2015,06,17,08,49,15.20
2015,06,17,08,50,15.20
2015,06,17,08,51,15.20
2015,06,17,08,52,15.20
2015,06,17,08,53,15.20
2015,06,17,08,54,15.20
2015,06,17,08,55,15.20
2015,06,17,08,56,15.30
2015,06,17,08,57,15.30
2015,06,17,08,59,15.40
2015,06,17,09,00,15.40
2015,06,17,09,01,15.40
2015,06,17,09,02,15.50
2015,06,17,09,03,15.60
2015,06,17,09,04,15.60
2015,06,17,09,05,15.70
2015,06,17,09,06,15.70
2015,06,17,09,07,15.80
2015,06,17,09,08,15.80
2015,06,17,09,09,15.90
2015,06,17,09,10,16.00
2015,06,17,09,11,16.10
2015,06,17,09,12,16.20
2015,06,17,09,13,16.30
2015,06,17,09,15,16.30
2015,06,17,09,16,16.40
2015,06,17,09,17,16.40
2015,06,17,09,18,16.40
2015,06,17,09,19,16.40
2015,06,17,09,20,16.40
2015,06,17,09,21,16.40
2015,06,17,09,22,16.40
2015,06,17,09,23,16.40
2015,06,17,09,24,16.40
2015,06,17,09,25,16.40
2015,06,17,09,26,16.40
2015,06,17,09,27,16.50
2015,06,17,09,29,16.60
2015,06,17,09,30,16.60
2015,06,17,09,31,16.70
2015,06,17,09,32,16.70
2015,06,17,09,33,16.60
2015,06,17,09,34,16.60
2015,06,17,09,35,16.60
2015,06,17,09,36,16.60
2015,06,17,09,37,16.60
2015,06,17,09,38,16.70
2015,06,17,09,39,16.70
2015,06,17,09,40,16.70
2015,06,17,09,41,16.70
2015,06,17,09,42,16.70
2015,06,17,09,43,16.70
2015,06,17,09,44,16.70
2015,06,17,09,45,16.70
2015,06,17,09,46,16.70
2015,06,17,09,47,16.70
2015,06,17,09,48,16.60
2015,06,17,09,49,16.60
2015,06,17,09,50,16.60
2015,06,17,09,52,16.60
2015,06,17,09,54,16.60
2015,06,17,09,55,16.60
2015,06,17,09,56,16.70
2015,06,17,09,57,16.70
2015,06,17,09,58,16.80
2015,06,17,09,59,16.80
2015,06,17,10,00,16.90
2015,06,17,10,01,17.00
2015,06,17,10,02,17.00
2015,06,17,10,03,16.90
2015,06,17,10,04,16.90
2015,06,17,10,05,16.90
2015,06,17,10,06,16.90
2015,06,17,10,10,17.10
2015,06,17,10,11,17.20
2015,06,17,10,12,17.20
2015,06,17,10,13,17.30
2015,06,17,10,14,17.40
2015,06,17,10,15,17.50
2015,06,17,10,16,17.60
2015,06,17,10,17,17.70
2015,06,17,10,18,17.80
2015,06,17,10,19,17.80
2015,06,17,10,20,17.90
2015,06,17,10,22,18.00
2015,06,17,10,23,18.10
2015,06,17,10,24,18.10
2015,06,17,10,25,18.10
2015,06,17,10,26,18.20
2015,06,17,10,27,18.20
2015,06,17,10,28,18.20
2015,06,17,10,29,18.20
2015,06,17,10,30,18.10
2015,06,17,10,31,18.10
2015,06,17,10,32,18.10
2015,06,17,10,33,18.00
2015,06,17,10,34,17.90
2015,06,17,10,35,17.80
2015,06,17,10,39,17.70
2015,06,17,10,40,17.70
2015,06,17,10,41,17.70
2015,06,17,10,42,17.70
2015,06,17,10,43,17.70
2015,06,17,10,44,17.80
2015,06,17,10,45,17.80
2015,06,17,10,46,17.90
2015,06,17,10,47,18.00
2015,06,17,10,48,18.10
2015,06,17,10,50,18.20
2015,06,17,10,51,18.30
2015,06,17,10,52,18.40
2015,06,17,10,53,18.40
2015,06,17,10,54,18.60
2015,06,17,10,55,18.60
2015,06,17,10,56,18.70
2015,06,17,10,57,18.70
2015,06,17,10,58,18.80
2015,06,17,11,00,18.90
2015,06,17,11,02,19.20
2015,06,17,11,03,19.20
2015,06,17,11,04,19.40
2015,06,17,11,05,19.50
2015,06,17,11,06,19.60
2015,06,17,11,07,19.70
2015,06,17,11,08,19.80
2015,06,17,11,09,19.90
2015,06,17,11,11,20.10
2015,06,17,11,12,20.10
2015,06,17,11,15,20.10
2015,06,17,11,16,20.10
2015,06,17,11,17,19.90
2015,06,17,11,18,19.90
2015,06,17,11,19,19.80
2015,06,17,11,21,19.60
2015,06,17,11,22,19.50
2015,06,17,11,23,19.30
2015,06,17,11,24,19.30
2015,06,17,11,25,19.20
2015,06,17,11,26,19.20
2015,06,17,11,27,19.10
2015,06,17,11,28,19.10
2015,06,17,11,29,19.10
2015,06,17,11,30,19.10
2015,06,17,11,31,19.20
2015,06,17,11,32,19.20
2015,06,17,11,33,19.30
2015,06,17,11,35,19.60
2015,06,17,11,36,19.70
2015,06,17,11,37,19.80
2015,06,17,11,38,19.90
2015,06,17,11,39,20.00
2015,06,17,11,40,20.10
2015,06,17,11,41,20.10
2015,06,17,11,42,20.20
2015,06,17,11,43,20.20
2015,06,17,11,44,20.20
2015,06,17,11,45,20.30
2015,06,17,11,46,20.30
2015,06,17,11,47,20.30
2015,06,17,11,48,20.30
2015,06,17,11,49,20.30
2015,06,17,11,50,20.30
2015,06,17,11,51,20.30
2015,06,17,11,52,20.30
2015,06,17,11,53,20.40
2015,06,17,11,54,20.40
2015,06,17,11,55,20.40
2015,06,17,11,56,20.40
2015,06,17,11,57,20.30
2015,06,17,11,58,20.40
2015,06,17,11,59,20.40
2015,06,17,12,00,20.40
2015,06,17,12,01,20.50
2015,06,17,12,02,20.50
2015,06,17,12,03,20.50
2015,06,17,12,04,20.50
2015,06,17,12,05,20.50
2015,06,17,12,06,20.70
2015,06,17,12,07,20.70
2015,06,17,12,08,20.70
2015,06,17,12,09,20.70
2015,06,17,12,10,20.70
2015,06,17,12,11,20.70
2015,06,17,12,12,20.70
2015,06,17,12,13,20.80
2015,06,17,12,14,20.80
2015,06,17,12,15,20.90
2015,06,17,12,16,21.10
2015,06,17,12,17,21.20
2015,06,17,12,18,21.30
2015,06,17,12,19,21.40
2015,06,17,12,20,21.50
2015,06,17,12,21,21.60
2015,06,17,12,22,21.60
2015,06,17,12,23,21.70
2015,06,17,12,24,21.70
2015,06,17,12,25,21.80
2015,06,17,12,26,21.80
2015,06,17,12,27,21.70
2015,06,17,12,29,21.70
2015,06,17,12,30,21.70
2015,06,17,12,31,21.70
2015,06,17,12,32,21.70
2015,06,17,12,33,21.70
2015,06,17,12,34,21.70
2015,06,17,12,35,21.70
2015,06,17,12,37,21.80
2015,06,17,12,38,21.90
2015,06,17,12,40,22.10
2015,06,17,12,41,22.10
2015,06,17,12,42,22.20
2015,06,17,12,43,22.20
2015,06,17,12,44,22.20
2015,06,17,12,45,22.20
2015,06,17,12,46,22.20
2015,06,17,12,47,22.10
2015,06,17,12,48,22.10
2015,06,17,12,49,22.00
2015,06,17,12,50,21.90
2015,06,17,12,51,21.90
2015,06,17,12,52,21.90
2015,06,17,12,54,22.10
2015,06,17,12,55,22.20
2015,06,17,12,56,22.30
2015,06,17,12,57,22.40
2015,06,17,12,58,22.40
2015,06,17,12,59,22.60
2015,06,17,13,00,22.60
2015,06,17,13,01,22.70
2015,06,17,13,02,22.70
2015,06,17,13,03,22.70
2015,06,17,13,04,22.60
2015,06,17,13,05,22.60
2015,06,17,13,07,22.50
2015,06,17,13,08,22.40
2015,06,17,13,09,22.50
2015,06,17,13,10,22.60
2015,06,17,13,11,22.70
2015,06,17,13,12,22.80
2015,06,17,13,13,22.80
2015,06,17,13,14,22.90
2015,06,17,13,15,22.90
2015,06,17,13,16,22.90
2015,06,17,13,18,22.90
2015,06,17,13,19,22.90
2015,06,17,13,20,23.10
2015,06,17,13,21,23.20
2015,06,17,13,22,23.30
2015,06,17,13,23,23.30
2015,06,17,13,24,23.30
2015,06,17,13,25,23.30
2015,06,17,13,26,23.30
2015,06,17,13,27,23.30
2015,06,17,13,28,23.20
2015,06,17,13,29,23.20
2015,06,17,13,30,23.10
2015,06,17,13,31,23.10
2015,06,17,13,33,23.00
2015,06,17,13,34,23.00
2015,06,17,13,35,22.90
2015,06,17,13,36,22.90
2015,06,17,13,37,22.90
2015,06,17,13,38,22.90
2015,06,17,13,39,22.90
2015,06,17,13,40,23.00
2015,06,17,13,41,22.90
2015,06,17,13,42,22.90
2015,06,17,13,43,22.90
2015,06,17,13,44,22.90
2015,06,17,13,45,22.90
2015,06,17,13,46,22.90
2015,06,17,13,47,23.00
2015,06,17,13,48,23.00
2015,06,17,13,49,23.00
2015,06,17,13,50,23.00
2015,06,17,13,51,23.00
2015,06,17,13,52,23.00
2015,06,17,13,53,22.90
2015,06,17,13,54,22.90
2015,06,17,13,55,22.80
2015,06,17,13,56,22.80
2015,06,17,13,57,22.80
2015,06,17,13,58,22.70
2015,06,17,13,59,22.70
2015,06,17,14,00,22.70
2015,06,17,14,01,22.70
2015,06,17,14,02,22.70
2015,06,17,14,03,22.70
2015,06,17,14,04,22.80
2015,06,17,14,05,22.80
2015,06,17,14,06,22.80
2015,06,17,14,07,22.80
2015,06,17,14,08,22.80
2015,06,17,14,10,22.90
2015,06,17,14,11,22.90
2015,06,17,14,12,22.90
2015,06,17,14,13,23.10
2015,06,17,14,14,23.10
2015,06,17,14,15,23.10
2015,06,17,14,16,23.10
2015,06,17,14,17,23.10
2015,06,17,14,18,23.10
2015,06,17,14,19,23.10
2015,06,17,14,20,23.20
2015,06,17,14,21,23.20
2015,06,17,14,22,23.20
2015,06,17,14,23,23.30
2015,06,17,14,24,23.30
2015,06,17,14,25,23.30
2015,06,17,14,26,23.30
2015,06,17,14,27,23.40
2015,06,17,14,28,23.40
2015,06,17,14,29,23.50
2015,06,17,14,30,23.60
2015,06,17,14,31,23.60
2015,06,17,14,32,23.70
2015,06,17,14,33,23.70
2015,06,17,14,34,23.80
2015,06,17,14,35,23.90
2015,06,17,14,36,23.90
2015,06,17,14,37,24.00
2015,06,17,14,38,24.00
2015,06,17,14,39,24.10
2015,06,17,14,40,24.10
2015,06,17,14,41,24.10
2015,06,17,14,42,24.00
2015,06,17,14,43,24.00
2015,06,17,14,44,24.00
2015,06,17,14,45,24.00
2015,06,17,14,46,24.10
2015,06,17,14,47,24.10
2015,06,17,14,48,24.20
2015,06,17,14,49,24.30
2015,06,17,14,50,24.40
2015,06,17,14,51,24.60
2015,06,17,14,52,24.70
2015,06,17,14,53,24.80
2015,06,17,14,54,24.90
2015,06,17,14,55,25.00
2015,06,17,14,56,25.10
2015,06,17,14,57,25.10
2015,06,17,14,58,25.10
2015,06,17,14,59,25.10
2015,06,17,15,00,25.10
2015,06,17,15,01,25.00
2015,06,17,15,02,24.90
2015,06,17,15,03,24.80
2015,06,17,15,04,24.80
2015,06,17,15,05,24.70
2015,06,17,15,06,24.80
2015,06,17,15,07,24.80
2015,06,17,15,08,24.80
2015,06,17,15,09,24.80
2015,06,17,15,10,24.80
2015,06,17,15,11,24.80
2015,06,17,15,12,24.90
2015,06,17,15,13,24.90
2015,06,17,15,14,24.90
2015,06,17,15,15,24.90
2015,06,17,15,16,24.90
2015,06,17,15,17,24.90
2015,06,17,15,18,25.00
2015,06,17,15,19,25.10
2015,06,17,15,20,25.10
2015,06,17,15,21,25.20
2015,06,17,15,22,25.10
2015,06,17,15,23,25.10
2015,06,17,15,24,25.00
2015,06,17,15,25,24.90
2015,06,17,15,26,25.00
2015,06,17,15,27,25.10
2015,06,17,15,28,25.10
2015,06,17,15,29,25.10
2015,06,17,15,30,25.10
2015,06,17,15,31,25.20
2015,06,17,15,32,25.20
2015,06,17,15,33,25.20
2015,06,17,15,34,25.20
2015,06,17,15,35,25.30
2015,06,17,15,36,25.30
2015,06,17,15,37,25.30
2015,06,17,15,38,25.30
2015,06,17,15,39,25.20
2015,06,17,15,40,25.20
2015,06,17,15,41,25.20
2015,06,17,15,42,25.20
2015,06,17,15,43,25.10
2015,06,17,15,44,25.10
2015,06,17,15,45,25.10
2015,06,17,15,46,25.10
2015,06,17,15,47,25.10
2015,06,17,15,48,25.20
2015,06,17,15,49,25.30
2015,06,17,15,50,25.30
2015,06,17,15,51,25.20
2015,06,17,15,52,25.10
2015,06,17,15,53,25.10
2015,06,17,15,54,25.10
2015,06,17,15,55,25.10
2015,06,17,15,56,25.10
2015,06,17,15,57,25.10
2015,06,17,15,58,25.10
2015,06,17,15,59,25.10
2015,06,17,16,00,25.10
2015,06,17,16,01,25.10
2015,06,17,16,02,25.10
2015,06,17,16,03,25.00
2015,06,17,16,04,24.90
2015,06,17,16,05,25.00
2015,06,17,16,06,24.90
2015,06,17,16,07,24.90
2015,06,17,16,08,24.80
2015,06,17,16,09,24.70
2015,06,17,16,10,24.70
2015,06,17,16,11,24.60
2015,06,17,16,12,24.60
2015,06,17,16,13,24.50
2015,06,17,16,14,24.50
2015,06,17,16,15,24.40
2015,06,17,16,16,24.30
2015,06,17,16,17,24.30
2015,06,17,16,18,24.30
2015,06,17,16,19,24.20
2015,06,17,16,20,24.10
2015,06,17,16,21,24.10
2015,06,17,16,22,24.00
2015,06,17,16,23,23.90
2015,06,17,16,24,23.90
2015,06,17,16,25,23.90
2015,06,17,16,26,23.80
2015,06,17,16,27,23.90
2015,06,17,16,28,23.90
2015,06,17,16,29,23.90
2015,06,17,16,30,23.90
2015,06,17,16,31,23.90
2015,06,17,16,32,24.00
2015,06,17,16,33,24.10
2015,06,17,16,34,24.20
2015,06,17,16,35,24.20
2015,06,17,16,36,24.20
2015,06,17,16,37,24.30
2015,06,17,16,38,24.30
2015,06,17,16,39,24.30
2015,06,17,16,40,24.30
2015,06,17,16,41,24.30
2015,06,17,16,42,24.30
2015,06,17,16,43,24.20
2015,06,17,16,45,24.10
2015,06,17,16,47,23.90
2015,06,17,16,50,24.00
2015,06,17,16,53,24.20
2015,06,17,16,54,24.20
2015,06,17,16,55,24.30
2015,06,17,16,56,24.40
2015,06,17,16,57,24.40
2015,06,17,16,59,24.30
2015,06,17,17,00,24.30
2015,06,17,17,01,24.30
2015,06,17,17,02,24.30
2015,06,17,17,03,24.30
2015,06,17,17,04,24.30
2015,06,17,17,05,24.20
2015,06,17,17,06,24.10
2015,06,17,17,07,24.00
2015,06,17,17,08,23.80
2015,06,17,17,09,23.80
2015,06,17,17,10,23.60
2015,06,17,17,11,23.40
2015,06,17,17,12,23.30
2015,06,17,17,13,23.20
2015,06,17,17,14,23.00
2015,06,17,17,15,22.80
2015,06,17,17,16,22.80
2015,06,17,17,17,22.70
2015,06,17,17,18,22.60
2015,06,17,17,19,22.40
2015,06,17,17,20,22.40
2015,06,17,17,21,22.40
2015,06,17,17,24,22.20
2015,06,17,17,25,22.20
2015,06,17,17,26,22.20
2015,06,17,17,27,22.20
2015,06,17,17,28,22.20
2015,06,17,17,29,22.20
2015,06,17,17,30,22.20
2015,06,17,17,31,22.20
2015,06,17,17,32,22.20
2015,06,17,17,33,22.20
2015,06,17,17,34,22.20
2015,06,17,17,35,22.20
2015,06,17,17,37,22.20
2015,06,17,17,38,22.20
2015,06,17,17,39,22.20
2015,06,17,17,40,22.30
2015,06,17,17,41,22.30
2015,06,17,17,42,22.40
2015,06,17,17,43,22.40
2015,06,17,17,44,22.40
2015,06,17,17,45,22.50
2015,06,17,17,46,22.60
2015,06,17,17,47,22.60
2015,06,17,17,48,22.60
2015,06,17,17,49,22.70
2015,06,17,17,50,22.70
2015,06,17,17,51,22.70
2015,06,17,17,52,22.80
2015,06,17,17,53,22.80
2015,06,17,17,54,22.80
2015,06,17,17,55,22.70
2015,06,17,17,56,22.60
2015,06,17,17,57,22.50
2015,06,17,17,58,22.40
2015,06,17,18,00,22.30
2015,06,17,18,02,22.30
2015,06,17,18,03,22.40
2015,06,17,18,04,22.40
2015,06,17,18,05,22.50
2015,06,17,18,06,22.40
2015,06,17,18,07,22.40
2015,06,17,18,08,22.30
2015,06,17,18,09,22.30
2015,06,17,18,10,22.20
2015,06,17,18,11,22.20
2015,06,17,18,12,22.20
2015,06,17,18,13,22.20
2015,06,17,18,14,22.20
2015,06,17,18,15,22.20
2015,06,17,18,16,22.20
2015,06,17,18,17,22.20
2015,06,17,18,18,22.20
2015,06,17,18,19,22.30
2015,06,17,18,20,22.30
2015,06,17,18,21,22.30
2015,06,17,18,22,22.40
2015,06,17,18,23,22.40
2015,06,17,18,24,22.40
2015,06,17,18,25,22.50
2015,06,17,18,26,22.50
2015,06,17,18,27,22.50